Regional Weather Roundup
Issued by NWS

Home | Current Version | Previous Version | Text Only | Print | Product List | Glossary On
Versions: 1 2 3 4 5 6 7 8 9 10 11 12 13 14 15 16 17 18 19 20 21 22 23 24 25 26 27 28 29 30 31 32 33 34 35 36 37 38 39 40 41 42 43 44 45 46 47 48 49 50
128
ASUS44 KLIX 230105
RWRLA
LOUISIANA WEATHER ROUNDUP
NATIONAL WEATHER SERVICE NEW ORLEANS LA
800 PM CDT TUE APR 22 2014

NOTE: "FAIR" INDICATES FEW OR NO CLOUDS BELOW 12,000 FEET WITH NO
      SIGNIFICANT WEATHER AND/OR OBSTRUCTIONS TO VISIBILITY.
      SKY/WX - SKY CONDITION AND SIGNIFICANT WEATHER.
      TMP - AIR TEMPERATURE.    DP   - DEWPOINT TEMPERATURE.
      RH  - RELATIVE HUMIDITY.  PRES - PRESSURE.
      HX  - HEAT INDEX.         WCI  - WIND CHILL INDEX.

*  THESE STATIONS ARE NOT NWS OR FAA STATIONS AND ARE NOT UNDER
   NWS QUALITY CONTROL.

LAZ040-048-061>063-065-066-069-230200-
SOUTHEAST LOUISIANA

CITY           SKY/WX    TMP DP  RH WIND       PRES   REMARKS
N.O. AUDUBON     N/A     72  67  83 MISG        N/A
N.O. INTL ARPT PTCLDY    73  63  70 NW7       29.90R
N.O. LAKEFRONT CLEAR     71  66  84 W8        29.90R
N.O. DOWNTOWN* FAIR      75  63  64 CALM      29.90R
SLIDELL        CLEAR     72  63  73 CALM      29.89R
BATON ROUGE    CLEAR     72  60  66 CALM      29.90R
BOOTHVILLE     CLEAR     70  67  90 W3        29.90R
BELLE CHASSE   PTCLDY    68  64  87 CALM      29.89R
BOGALUSA*        N/A     70  63  78 CALM      29.91R
GALLIANO*      CLEAR     73  66  80 SW5       29.90S
NEW ROADS*     FAIR      71  62  71 CALM      29.91R
GONZALES*      FAIR      70  64  83 CALM      29.90R
HAMMOND*       CLEAR     70  63  78 CALM      29.91R
HOUMA*           N/A     73  65  78 W5        29.90R
PORT FOURCHON* CLEAR     72  68  88 W9        29.92S

$$

LAZ041-044-053-054-230200-
SOUTHWEST LOUISIANA

CITY           SKY/WX    TMP DP  RH WIND       PRES   REMARKS
LAKE CHARLES   CLEAR     73  68  84 S6        29.90R
LAFAYETTE      CLEAR     73  61  65 CALM      29.91R
PATTERSON      CLEAR     70  66  88 S5        29.94R
SALT POINT       N/A     73  69  87 W5        29.90R
NEW IBERIA     CLEAR     73  60  63 N5        29.91R
CHENAULT AIRPK PTCLDY    79  59  50 NE6       29.91R

$$

LAZ027-028-230200-
CENTRAL LOUISIANA

CITY           SKY/WX    TMP DP  RH WIND       PRES   REMARKS
FORT POLK      CLEAR     73  61  65 CALM      29.91S
ALEXANDRIA INT PTCLDY    72  61  68 N5        29.90R
ALEXANDRIA     CLEAR     69  62  78 CALM      29.91R

$$

LAZ001-002-230200-
NORTHWEST LOUISIANA

CITY           SKY/WX    TMP DP  RH WIND       PRES   REMARKS
SHREVEPORT     PTCLDY    74  59  59 CALM      29.91R
BARKSDALE AFB  CLEAR     75  57  53 NE3       29.91R
DTN SHREVEPORT CLEAR     75  58  55 CALM      29.91R

$$

LAZ014-016-230200-
NORTHEAST LOUISIANA

CITY           SKY/WX    TMP DP  RH WIND       PRES   REMARKS
MONROE         CLEAR     69  59  70 CALM      29.93R
TALLULAH       CLEAR     73  61  65 NW5       29.91R

$$




USA.gov is the U.S. government's official web portal to all federal, state and local government web resources and services.